This is the latest recevied weather packets stored in our database for station/object K3TLB-13. If no packets are shown the sender has not sent any weather packets the latest 10 day(s).
| Time | Temp. | Humidity | Pressure | Rain* | Wind** | Luminosity | Snow |
|---|---|---|---|---|---|---|---|
| 1777297168 | 14.44° C | 67% | 1025.4 hPa | 0 mm | - | - | - |
| 1777296868 | 14.44° C | 70% | 1025.4 hPa | 0 mm | - | - | - |
| 1777296569 | 13.33° C | 71% | 1025.3 hPa | 0 mm | - | - | - |
| 1777296268 | 13.33° C | 73% | 1025.3 hPa | 0 mm | - | - | - |
| 1777295972 | 13.33° C | 73% | 1025.1 hPa | 0 mm | - | - | - |
| 1777295668 | 12.78° C | 76% | 1025.1 hPa | 0 mm | - | - | - |
| 1777295368 | 12.22° C | 77% | 1025.1 hPa | 0 mm | - | - | - |
| 1777295068 | 12.22° C | 77% | 1025.1 hPa | 0 mm | - | - | - |
| 1777294768 | 11.67° C | 78% | 1025.1 hPa | 0 mm | - | - | - |
| 1777294469 | 11.67° C | 81% | 1025 hPa | 0 mm | - | - | - |
| 1777294169 | 11.11° C | 82% | 1025.1 hPa | 0 mm | - | - | - |
| 1777293869 | 10.56° C | 84% | 1025.1 hPa | 0 mm | - | - | - |
| 1777293570 | 10° C | 87% | 1025.1 hPa | 0 mm | - | - | - |
| 1777293271 | 8.89° C | 86% | 1025.2 hPa | 0 mm | - | - | - |
| 1777292969 | 8.89° C | 86% | 1025.1 hPa | 0 mm | - | - | - |
| 1777292669 | 8.33° C | 87% | 1025.1 hPa | 0 mm | - | - | - |
| 1777292370 | 8.33° C | 89% | 1025.1 hPa | 0 mm | - | - | - |
| 1777292069 | 7.78° C | 90% | 1025 hPa | 0 mm | - | - | - |
| 1777291769 | 7.22° C | 91% | 1024.9 hPa | 0 mm | - | - | - |
| 1777291472 | 6.67° C | 91% | 1024.8 hPa | 0 mm | - | - | - |
| 1777291244 | 6.11° C | 91% | 1024.8 hPa | 0 mm | - | - | - |
| 1777291169 | 6.11° C | 91% | 1024.8 hPa | 0 mm | - | - | - |
| 1777290870 | 5.56° C | 92% | 1024.8 hPa | 0 mm | - | - | - |
| 1777290569 | 5° C | 91% | 1024.8 hPa | 0 mm | - | - | - |
| 1777290269 | 4.44° C | 91% | 1024.7 hPa | 0 mm | - | - | - |
* Rain latest hour (hover to see other rain measurements)
** Current wind speed in m/s (hover to see current wind gust speed)